Flag for Australia Weather past 2 weeks in Melbourne, Victoria, Australia

82 °F

Partly sunny.

Feels Like: 81 °F
Forecast: 56 / 75 °F
Wind: 15 mph from Southwest

Location: Melbourne Airport

Current Time: Oct 10, 2015 at 6:45:46 PM

Latest Report: Oct 10, 2015 at 6:00 PM

Visibility: N/A

Pressure: 30.12 "Hg

Humidity: 32%

Dew point: 50 °F

Location of MelbourneLocation

Historic Weather in Melbourne — Graph


Melbourne temperature yesterday

Maximum temperature yesterday: 84 °F (at 3:00 PM)
Minimum temperature yesterday: 50 °F (at 1:00 AM)
Average temperature yesterday: 69 °F

Past Weeks' High & Low Weather Summary

High95 °F (Oct 6, 1:00 PM)100% (Sep 26, 2:00 AM)30.63 "Hg (Sep 26, 2:00 AM)
Low39 °F (Sep 27, 6:00 AM)7% (Oct 6, 1:30 PM)29.86 "Hg (Oct 6, 1:30 PM)
Average61 °F56%30.25 "Hg
* Reported Sep 25 4:00 PM — Oct 10 5:30 PM, Melbourne, Weather by CustomWeather, © 2015

Note: Actual official high and low records may vary slightly from our data, if they occured in-between our weather recording intervals... More about our weather records


Melbourne weather history for previous 24 hours

Time TempWeatherWind HumidityBarometerVisibility
5:30 PM
Sat, Oct 10
84 °FSunny.8 mph29%30.12 "Hg10 mi
5:00 PM84 °FPassing clouds.13 mph29%30.15 "HgN/A
4:30 PM86 °FPassing clouds.12 mph25%30.15 "HgN/A
4:00 PM84 °FSunny.8 mph35%30.15 "Hg10 mi
3:30 PM81 °FSprinkles. Clear.10 mph39%30.18 "HgN/A
3:00 PM82 °FSunny.12 mph35%30.18 "Hg10 mi
2:30 PM82 °FSunny.13 mph32%30.21 "Hg10 mi
2:00 PM82 °FSunny.16 mph32%30.24 "Hg10 mi
1:30 PM81 °FSunny.13 mph34%30.24 "Hg10 mi
1:00 PM77 °FSunny.15 mph42%30.27 "Hg10 mi
12:30 PM77 °FSunny.14 mph44%30.27 "Hg10 mi
12:00 PM75 °FSunny.12 mph44%30.27 "Hg10 mi
11:30 AM75 °FSunny.8 mph47%30.30 "Hg10 mi
11:00 AM75 °FSprinkles. Clear.8 mph41%30.30 "HgN/A
10:30 AM73 °FSunny.22 mph44%30.24 "Hg10 mi
10:00 AM73 °FSunny.25 mph41%30.24 "Hg10 mi
9:30 AM75 °FSunny.24 mph39%30.24 "Hg10 mi
9:00 AM72 °FSunny.22 mph44%30.24 "Hg10 mi
8:00 AM68 °FSunny.22 mph49%30.24 "Hg10 mi
7:30 AM66 °FSunny.22 mph52%30.24 "Hg10 mi
7:00 AM64 °FSunny.22 mph56%30.24 "Hg10 mi
6:30 AM64 °FClear.22 mph52%30.24 "Hg10 mi
6:00 AM64 °FClear.21 mph52%30.24 "Hg10 mi
5:00 AM64 °FClear.20 mph49%30.21 "Hg10 mi
4:30 AM68 °FClear.20 mph40%30.24 "Hg10 mi
4:00 AM66 °FClear.20 mph46%30.24 "Hg10 mi
3:30 AM64 °FClear.17 mph52%30.24 "Hg10 mi
3:00 AM66 °FClear.14 mph49%30.24 "Hg10 mi
2:30 AM66 °FClear.14 mph52%30.24 "Hg10 mi
2:00 AM64 °FClear.15 mph60%30.24 "Hg10 mi
1:30 AM66 °FClear.15 mph56%30.27 "Hg10 mi
1:00 AM66 °FClear.16 mph56%30.27 "Hg10 mi
12:30 AM68 °FClear.16 mph49%30.30 "Hg10 mi
12:00 AM66 °FClear.16 mph56%30.30 "Hg10 mi
11:30 PM
Fri, Oct 9
66 °FClear.10 mph60%30.30 "Hg10 mi
11:00 PM70 °FClear.10 mph50%30.33 "Hg10 mi
10:30 PM66 °FClear.13 mph56%30.33 "Hg10 mi
10:00 PM66 °FClear.7 mph60%30.33 "Hg10 mi
9:00 PM68 °FClear.6 mph56%30.30 "Hg10 mi
8:00 PM70 °FPassing clouds.8 mph53%30.33 "HgN/A
7:30 PM73 °FScattered showers. Broken clouds.12 mph44%30.33 "HgN/A
7:00 PM73 °FBroken clouds.5 mph44%30.30 "HgN/A
6:30 PM77 °FSunny.8 mph39%30.27 "Hg10 mi
6:00 PM79 °FSunny.14 mph34%30.27 "Hg10 mi
Weather by CustomWeather, © 2015

See weather overviewHow to use our weather pages